EWG144 YCFS-YBCG

Flight info

Callsign EWG144
Flight time 0h 30m
Altitude 14000
Route TUCAB
Aircraft A320/M-SDE3FGHIRWY/LB1

Departure

Time 2026-04-20 19:14
Airport Coffs Harbour Airport (YCFS)

Arrival

Time 2026-04-20 19:45
Airport Gold Coast Airport (YBCG)
Time Latitude Longitude Altitude Speed Heading
2026-04-20 18:56 -30.32311 153.11633 24 ft 0 kts 340°
2026-04-20 19:11 -30.32309 153.11634 22 ft 1 kts 356°
2026-04-20 19:11 -30.32308 153.11645 24 ft 2 kts 90°
2026-04-20 19:12 -30.32307 153.11698 22 ft 9 kts 61°
2026-04-20 19:12 -30.32247 153.11765 22 ft 13 kts 51°
2026-04-20 19:12 -30.32192 153.11828 22 ft 11 kts 24°
2026-04-20 19:12 -30.32148 153.11872 22 ft 8 kts 115°
2026-04-20 19:13 -30.32193 153.11905 22 ft 11 kts 152°
2026-04-20 19:13 -30.32288 153.11963 23 ft 17 kts 152°
2026-04-20 19:13 -30.32404 153.12031 25 ft 18 kts 157°
2026-04-20 19:13 -30.32506 153.11971 24 ft 18 kts 220°
2026-04-20 19:14 -30.32658 153.11821 23 ft 57 kts 220°
2026-04-20 19:14 -30.33130 153.11351 22 ft 117 kts 221°
2026-04-20 19:14 -30.33824 153.10629 312 ft 138 kts 223°
2026-04-20 19:14 -30.34558 153.09894 965 ft 140 kts 220°
2026-04-20 19:15 -30.35289 153.09178 1671 ft 134 kts 222°
2026-04-20 19:15 -30.35833 153.08202 1976 ft 164 kts 253°
2026-04-20 19:15 -30.35736 153.06774 2304 ft 200 kts 287°
2026-04-20 19:15 -30.34678 153.05544 2643 ft 238 kts 332°
2026-04-20 19:16 -30.32959 153.05252 3126 ft 262 kts
2026-04-20 19:16 -30.31119 153.05603 3750 ft 278 kts 14°
2026-04-20 19:16 -30.29204 153.06198 4513 ft 288 kts 17°
2026-04-20 19:16 -30.27265 153.06848 5420 ft 292 kts 18°
2026-04-20 19:17 -30.25299 153.07477 6341 ft 294 kts 17°
2026-04-20 19:17 -30.23301 153.08068 7235 ft 297 kts 16°
2026-04-20 19:17 -30.21288 153.08620 8153 ft 297 kts 14°
2026-04-20 19:17 -30.19270 153.09143 9095 ft 297 kts 13°
2026-04-20 19:18 -30.17267 153.09647 9965 ft 299 kts 13°
2026-04-20 19:18 -30.15189 153.10165 10479 ft 315 kts 12°
2026-04-20 19:18 -30.12964 153.10719 10687 ft 339 kts 12°
2026-04-20 19:18 -30.10571 153.11315 10900 ft 362 kts 12°
2026-04-20 19:19 -30.08071 153.11938 11389 ft 372 kts 13°
2026-04-20 19:19 -30.05517 153.12574 12021 ft 378 kts 13°
2026-04-20 19:19 -30.02924 153.13218 12688 ft 382 kts 13°
2026-04-20 19:19 -30.00296 153.13870 13250 ft 391 kts 13°
2026-04-20 19:20 -29.97603 153.14538 13846 ft 398 kts 13°
2026-04-20 19:20 -29.94889 153.15215 14155 ft 399 kts 13°
2026-04-20 19:20 -29.92159 153.15898 14237 ft 408 kts 13°
2026-04-20 19:20 -29.89309 153.16611 14254 ft 429 kts 13°
2026-04-20 19:21 -29.86343 153.17349 14250 ft 440 kts 13°
2026-04-20 19:21 -29.83371 153.18084 14250 ft 443 kts 13°
2026-04-20 19:21 -29.80349 153.18830 14250 ft 443 kts 13°
2026-04-20 19:21 -29.77333 153.19575 14250 ft 443 kts 13°
2026-04-20 19:22 -29.74313 153.20324 14250 ft 443 kts 13°
2026-04-20 19:22 -29.71294 153.21072 14249 ft 445 kts 13°
2026-04-20 19:22 -29.68264 153.21821 14249 ft 445 kts 13°
2026-04-20 19:22 -29.65230 153.22571 14249 ft 445 kts 13°
2026-04-20 19:23 -29.62200 153.23324 14249 ft 445 kts 13°
2026-04-20 19:23 -29.59172 153.24076 14249 ft 445 kts 13°
2026-04-20 19:23 -29.56141 153.24822 14251 ft 446 kts 13°
2026-04-20 19:23 -29.53106 153.25567 14244 ft 446 kts 13°
2026-04-20 19:24 -29.50071 153.26314 14245 ft 446 kts 13°
2026-04-20 19:24 -29.47021 153.26953 14240 ft 446 kts
2026-04-20 19:24 -29.43929 153.27342 14239 ft 447 kts
2026-04-20 19:24 -29.40837 153.27720 14239 ft 447 kts
2026-04-20 19:25 -29.37740 153.28092 14239 ft 447 kts
2026-04-20 19:25 -29.34645 153.28462 14240 ft 447 kts
2026-04-20 19:25 -29.31550 153.28835 14241 ft 447 kts
2026-04-20 19:25 -29.28455 153.29211 14242 ft 447 kts
2026-04-20 19:26 -29.25360 153.29588 14243 ft 447 kts
2026-04-20 19:26 -29.22258 153.29965 14243 ft 447 kts
2026-04-20 19:26 -29.19200 153.30335 14244 ft 447 kts
2026-04-20 19:26 -29.16104 153.30709 14244 ft 447 kts
2026-04-20 19:27 -29.13004 153.31082 14247 ft 447 kts
2026-04-20 19:27 -29.09909 153.31453 14247 ft 447 kts
2026-04-20 19:27 -29.06803 153.31827 14248 ft 447 kts
2026-04-20 19:27 -29.03708 153.32203 14247 ft 447 kts
2026-04-20 19:28 -29.00603 153.32580 14247 ft 447 kts
2026-04-20 19:28 -28.97508 153.32952 14244 ft 447 kts
2026-04-20 19:28 -28.94410 153.33324 14243 ft 447 kts
2026-04-20 19:28 -28.91311 153.33694 14248 ft 447 kts
2026-04-20 19:29 -28.88205 153.34065 14245 ft 447 kts
2026-04-20 19:29 -28.85140 153.34433 14245 ft 447 kts
2026-04-20 19:29 -28.82037 153.34805 14248 ft 447 kts
2026-04-20 19:29 -28.78943 153.35181 14247 ft 447 kts
2026-04-20 19:30 -28.75846 153.35557 14248 ft 447 kts
2026-04-20 19:30 -28.72756 153.35998 14233 ft 447 kts 11°
2026-04-20 19:30 -28.69854 153.37212 14235 ft 445 kts 27°
2026-04-20 19:30 -28.67100 153.38780 13407 ft 438 kts 27°
2026-04-20 19:31 -28.64410 153.40310 12230 ft 426 kts 28°
2026-04-20 19:31 -28.61780 153.41801 11423 ft 420 kts 26°
2026-04-20 19:31 -28.59074 153.42872 11241 ft 404 kts 12°
2026-04-20 19:31 -28.56360 153.43364 11118 ft 385 kts
2026-04-20 19:32 -28.53775 153.43817 10990 ft 364 kts
2026-04-20 19:32 -28.51371 153.44248 10867 ft 336 kts
2026-04-20 19:32 -28.49133 153.44651 10612 ft 318 kts
2026-04-20 19:32 -28.46983 153.45039 10267 ft 307 kts
2026-04-20 19:33 -28.44861 153.45425 10040 ft 308 kts
2026-04-20 19:33 -28.42752 153.45808 9867 ft 307 kts
2026-04-20 19:33 -28.40644 153.46189 9732 ft 307 kts
2026-04-20 19:33 -28.38524 153.46568 9396 ft 309 kts
2026-04-20 19:34 -28.36390 153.46948 8952 ft 309 kts
2026-04-20 19:34 -28.34263 153.47324 8433 ft 311 kts
2026-04-20 19:34 -28.32166 153.47695 8041 ft 300 kts 10°
2026-04-20 19:34 -28.30119 153.48056 7418 ft 296 kts 10°
2026-04-20 19:35 -28.28085 153.48415 6815 ft 295 kts 10°
2026-04-20 19:35 -28.26057 153.48776 6276 ft 294 kts 10°
2026-04-20 19:35 -28.24062 153.49132 5795 ft 292 kts 10°
2026-04-20 19:35 -28.22056 153.49490 5710 ft 293 kts 11°
2026-04-20 19:36 -28.20052 153.49846 5628 ft 286 kts 11°
2026-04-20 19:36 -28.18130 153.50185 5514 ft 273 kts 11°
2026-04-20 19:36 -28.16272 153.50239 5361 ft 264 kts 352°
2026-04-20 19:36 -28.14475 153.49822 4986 ft 264 kts 348°
2026-04-20 19:37 -28.12683 153.49368 4616 ft 264 kts 347°
2026-04-20 19:37 -28.10890 153.48912 4316 ft 264 kts 347°
2026-04-20 19:37 -28.09101 153.48458 3969 ft 263 kts 347°
2026-04-20 19:37 -28.07345 153.48015 3631 ft 254 kts 347°
2026-04-20 19:38 -28.05647 153.47587 3297 ft 246 kts 348°
2026-04-20 19:38 -28.03996 153.47174 2974 ft 239 kts 347°
2026-04-20 19:38 -28.02432 153.46787 2889 ft 219 kts 347°
2026-04-20 19:38 -28.01000 153.46433 2813 ft 206 kts 347°
2026-04-20 19:39 -27.99728 153.45819 2783 ft 195 kts 313°
2026-04-20 19:39 -27.99055 153.44600 2744 ft 175 kts 273°
2026-04-20 19:39 -27.99099 153.43304 2698 ft 160 kts 242°
2026-04-20 19:39 -27.99681 153.42295 2653 ft 149 kts 214°
2026-04-20 19:40 -28.00562 153.41762 2612 ft 142 kts 189°
2026-04-20 19:40 -28.01528 153.41749 2573 ft 140 kts 166°
2026-04-20 19:40 -28.02394 153.42226 2536 ft 137 kts 148°
2026-04-20 19:40 -28.03162 153.42829 2497 ft 130 kts 149°
2026-04-20 19:41 -28.03884 153.43389 2465 ft 123 kts 149°
2026-04-20 19:41 -28.04580 153.43920 2430 ft 118 kts 154°
2026-04-20 19:41 -28.05315 153.44309 2323 ft 116 kts 159°
2026-04-20 19:41 -28.06036 153.44686 2162 ft 112 kts 159°
2026-04-20 19:42 -28.06732 153.45053 2012 ft 112 kts 160°
2026-04-20 19:42 -28.07434 153.45423 1857 ft 111 kts 159°
2026-04-20 19:42 -28.08141 153.45795 1660 ft 112 kts 160°
2026-04-20 19:42 -28.08848 153.46182 1537 ft 115 kts 159°
2026-04-20 19:43 -28.09564 153.46586 1388 ft 116 kts 158°
2026-04-20 19:43 -28.10293 153.46994 1160 ft 117 kts 159°
2026-04-20 19:43 -28.11043 153.47374 1018 ft 119 kts 160°
2026-04-20 19:43 -28.11790 153.47789 846 ft 120 kts 159°
2026-04-20 19:44 -28.12525 153.48220 682 ft 120 kts 159°
2026-04-20 19:44 -28.13283 153.48665 572 ft 120 kts 156°
2026-04-20 19:44 -28.14043 153.49133 413 ft 127 kts 159°
2026-04-20 19:44 -28.14849 153.49601 248 ft 132 kts 158°
2026-04-20 19:45 -28.15654 153.50087 55 ft 131 kts 155°
2026-04-20 19:45 -28.16385 153.50538 28 ft 93 kts 150°
2026-04-20 19:45 -28.16744 153.50765 29 ft 42 kts 149°
2026-04-20 19:45 -28.16918 153.50880 28 ft 16 kts 140°
2026-04-20 19:46 -28.16921 153.50998 26 ft 17 kts 54°
2026-04-20 19:46 -28.16877 153.51078 25 ft 11 kts 60°
2026-04-20 19:46 -28.16835 153.51151 25 ft 13 kts 39°
2026-04-20 19:46 -28.16725 153.51111 27 ft 19 kts 330°
2026-04-20 19:47 -28.16616 153.51041 27 ft 17 kts 331°
2026-04-20 19:47 -28.16530 153.50987 28 ft 11 kts 331°
2026-04-20 19:47 -28.16469 153.50969 29 ft 8 kts 22°
2026-04-20 19:47 -28.16461 153.51005 29 ft 5 kts 101°
2026-04-20 19:48 -28.16468 153.51054 29 ft 6 kts 95°
2026-04-20 19:48 -28.16470 153.51073 29 ft 0 kts 96°